#timestamp,LO_Frequency,Hit,StdDev 
1550005215.6,286047000.8,N
1550005235.5,286047001.2,N
1550005255.3,286047002.7,N
1550005275.1,286047001.1,N
1550005295.9,286046998.6,N
1550005315.7,286046998.4,N
1550005335.5,286046998.5,N
1550005355.4,286047000.3,N
1550005375.2,286047002.4,N
1550005395.0,286047002.0,N
1550005396.0,286047002.0,N
1550005415.8,286047002.2,N
1550005435.6,286047000.2,N
1550005455.5,286047001.4,N
1550005475.3,286047002.0,N
1550005495.1,286047000.5,N
1550005515.9,286046998.4,N
1550005535.7,286046999.5,N
1550005555.7,286046996.9,N
1550005575.5,286046999.6,N
1550005595.3,286046998.7,N
1550005615.2,286046998.3,N
1550005635.0,286046998.1,N
1550005635.9,286046998.1,N
1550005655.8,286046999.0,N
1550005675.6,286047000.2,N
1550005695.4,286047004.2,N
1550005715.3,286047005.8,Y
1550005735.1,286047004.3,P
1550005755.9,286047001.3,N
1550005775.7,286047003.8,N
1550005795.5,286047003.0,N
1550005815.4,286047005.1,Y
1550005835.2,286047001.0,P
1550005855.0,286047000.7,N
1550005856.0,286047000.7,N
1550005875.8,286046998.3,N
1550005895.6,286046998.3,N
1550005915.5,286046998.5,N
1550005935.3,286047002.1,N
1550005955.1,286047000.4,N
1550005975.9,286047000.1,N
1550005995.7,286047000.2,N
1550006015.6,286047000.6,N
1550006035.4,286046999.3,N
1550006055.2,286046996.8,N
1550006075.1,286046997.7,N
1550006076.0,286046997.7,N
1550006095.8,286046994.9,Y
1550006115.7,286046997.1,P
1550006135.5,286046997.0,N
1550006155.3,286046996.9,N
1550006175.2,286046996.7,N
1550006195.0,286046998.9,N
1550006195.9,286046998.9,N
1550006215.7,286046999.6,N
1550006235.6,286046999.4,N
1550006255.4,286047001.2,N
1550006275.3,286046997.7,N
1550006295.1,286046997.6,N
1550006315.8,286046997.1,N
1550006335.7,286046997.3,N
1550006355.5,286046994.9,Y
1550006375.4,286046999.4,P
1550006395.2,286046998.6,N
1550006415.0,286047001.1,N
1550006415.9,286047001.1,N
1550006435.8,286046999.3,N
1550006455.6,286046999.3,N
1550006475.5,286046997.0,N
1550006495.3,286046999.5,N
1550006515.1,286046998.9,N
1550006535.9,286046999.4,N
1550006555.7,286046999.3,N
1550006575.6,286046998.2,N
1550006595.4,286046998.4,N
1550006615.2,286046998.1,N
1550006635.1,286047002.8,N
1550006636.0,286047002.8,N
1550006655.8,286047000.5,N
1550006675.6,286046999.8,N
1550006695.5,286047002.8,N
1550006715.3,286047000.9,N
1550006735.2,286046998.1,N
1550006755.9,286046999.8,N
1550006775.7,286047001.8,N
1550006795.6,286047002.2,N
1550006815.4,286047001.8,N
1550006835.2,286047003.9,N
1550006855.1,286047002.0,N
1550006856.0,286047002.0,N
1550006875.8,286047001.1,N
1550006895.7,286046999.2,N
1550006915.5,286046997.7,N
1550006935.3,286046997.3,N
1550006955.2,286046999.6,N
1550006975.0,286046999.6,N
1550006975.9,286046999.6,N
1550006995.7,286047001.0,N
1550007015.6,286046999.2,N
1550007035.4,286046997.7,N
1550007055.3,286046999.6,N
1550007075.1,286047000.7,N
1550007076.0,286047000.7,N
1550007095.8,286047002.8,N
1550007115.7,286046999.7,N
1550007135.5,286046999.8,N
1550007155.3,286047000.3,N
1550007175.2,286046996.5,N
1550007195.0,286046999.2,N
1550007195.9,286046999.2,N
1550007215.8,286046996.7,N
1550007235.6,286046998.9,N
1550007255.4,286047001.0,N
1550007275.3,286047000.3,N
1550007295.1,286047000.2,N
1550007315.9,286047002.3,N
1550007335.7,286047003.2,N
1550007355.5,286047003.0,N
1550007405.4,286047000.3,E
1550007415.3,286047002.2,N
1550007435.2,286047001.9,P
1550007455.9,286047002.5,P
1550007475.7,286046999.7,N
1550007495.6,286047002.7,N
1550007515.4,286047000.2,N
1550007535.2,286047000.1,N
1550007555.1,286047002.4,N
1550007556.0,286047002.4,N
1550007575.8,286047002.6,N
1550007595.7,286047002.1,N
1550007615.5,286047002.7,N
1550007635.3,286046998.8,N
1550007655.2,286046999.2,N
1550007675.0,286046999.6,N
1550007675.9,286046999.6,N
1550007695.8,286046996.7,N
1550007715.6,286046996.5,N
1550007735.4,286046997.2,N
1550007755.3,286046997.0,N
1550007775.1,286046998.8,N
1550007795.1,286046997.1,N
1550007815.9,286046998.9,N
1550007835.7,286046999.3,N
1550007855.5,286046996.7,N
1550007875.4,286047000.6,N
1550007895.2,286047004.0,N
1550007915.0,286047001.3,N
1550007916.0,286047001.3,N
1550007935.8,286047002.7,N
1550007955.6,286047000.6,N
1550007975.5,286047000.8,N
1550007995.3,286047002.6,N
1550008015.1,286047002.4,N
1550008035.9,286047000.0,N
1550008055.7,286047002.4,N
1550008075.6,286047000.4,N
1550008095.4,286047001.2,N
1550008115.2,286046999.6,N
1550008135.1,286047001.0,N
1550008136.0,286047001.0,N
1550008155.8,286047000.6,N
1550008175.6,286046998.2,N
1550008195.5,286046996.7,N
1550008215.3,286046994.9,N
1550008235.2,286046997.6,N
1550008255.9,286046997.3,N
1550008275.7,286046999.1,N
1550008295.6,286046999.5,N
1550008315.4,286046997.3,N
1550008335.2,286046996.6,N
1550008355.1,286046999.2,N
1550008356.0,286046999.2,N
1550008375.8,286046999.1,N
1550008395.7,286046998.5,N
1550008415.5,286046998.4,N
1550008435.3,286047001.6,N
1550008455.2,286047000.0,N
1550008475.0,286046999.3,N
1550008475.9,286046999.3,N
1550008495.7,286047001.0,N
1550008515.6,286046999.4,N
1550008535.4,286046998.5,N
1550008555.3,286047001.1,N
1550008575.1,286047000.7,N
1550008595.8,286047000.7,N
1550008615.7,286047000.8,N
1550008635.5,286047000.6,N
1550008655.4,286047000.2,N
1550008675.2,286047002.8,N
1550008695.0,286047002.1,N
1550008695.9,286047002.1,N
1550008715.8,286047001.7,N
1550008735.6,286047002.2,N
1550008755.4,286047002.8,N
1550008775.3,286047000.0,N
1550008795.1,286047000.6,N
